Location: Unspecified
(0.0000°N, 0.0000°E)
Time: 00:37:31
(UTC+00:00)

CSTB 1 - Pass Details

Date: 23 May 2026
Orbit: 607 x 696 km, 98.4° (Epoch: 10 June)

Event Time Altitude Azimuth Distance (km) Brightness Sun altitude
Rises 04:37:28 0° 42° (NE) 3,060 ? -18.5°
Reaches altitude 10° 04:40:23 10° 61° (ENE) 2,146 ? -17.8°
Maximum altitude 04:43:29 18° 102° (ESE) 1,690 ? -17.1°
Drops below altitude 10° 04:46:35 10° 144° (SE) 2,141 ? -16.4°
Sets 04:49:29 0° 163° (SSE) 3,050 ? -15.7°
